Location: Newark
(22.3060°N, 114.2134°E)
Time: 20:28:54
(UTC+00:00)

Explorer 11/Cluster Stage 4 - Pass Details

Date: 03 August 2021
Orbit: 467 x 1256 km, 28.8° (Epoch: 27 September)

Event Time Altitude Azimuth Distance (km) Brightness Sun altitude
Rises 02:39:12 0° 280° (W) 4,105 10.0 63.7°
Reaches altitude 10° 02:42:07 10° 285° (WNW) 3,189 9.5 64.4°
Maximum altitude 02:50:07 54° 1° (N) 1,485 8.8 66.2°
Drops below altitude 10° 02:57:54 10° 77° (ENE) 3,108 10.1 68.0°
Sets 03:00:43 0° 82° (E) 3,996 10.5 68.6°
